DW9615 Home Hill AU current weather conditions

sailwx.info

Wind from 049 at 4 knots gusting 9

Air temperature 27.2° C
Dewpoint 19.3° C

Last reported at 2016-May-25 03:46 UTC.
Time now 2016-May-25 05:17 UTC

Location: S 19°40' E 147°25'.
View on Google Maps.

See reports from other nearby stations

  
Tides and Currents Weather Stations Pressure Air Temp Water Temp Dewpoint Dewpoint Depression Visibility Wind Speed Wind Dir Waves Ship Positions
date/time (UTC)wind fromknots sea level pressurealtimeterstation pressurevisibilityair tempwater tempwave heightnotes
2016-May-25 03:46 049 4 gusting 9 27.2
2016-May-25 03:31 082 4 gusting 11 27.2
2016-May-25 03:16 026 3 gusting 10 27.2
2016-May-25 03:01 031 2 gusting 7 27.2
2016-May-25 02:46 057 3 gusting 9 27.2
2016-May-25 02:31 064 6 gusting 10 27.2
2016-May-25 02:16 059 5 gusting 10 27.2
2016-May-25 02:01 082 3 gusting 7 27.2
2016-May-25 01:46 091 3 gusting 10 26.1
2016-May-25 01:31 044 3 gusting 7 26.7
2016-May-25 01:16 112 1 gusting 8 26.1
2016-May-25 01:01 106 4 gusting 8 26.1
2016-May-25 00:46 091 2 gusting 6 26.1
2016-May-25 00:31 108 0 gusting 5 25.6
2016-May-25 00:16 067 2 gusting 4 25.0
2016-May-25 00:00 083 0 gusting 3 24.4
2016-May-24 23:45 132 23.9
2016-May-24 23:30 130 0 gusting 2 23.3
2016-May-24 23:15 150 0 gusting 2 22.8
2016-May-24 23:00 145 22.8
2016-May-24 22:45 145 22.2
2016-May-24 22:30 145 21.7
2016-May-24 22:15 145 21.1
2016-May-24 22:00 145 0 gusting 2 20.6
2016-May-24 21:45 145 20.0
2016-May-24 21:30 145 19.4
2016-May-24 21:15 145 19.4
2016-May-24 21:00 145 0 gusting 1 19.4
2016-May-24 20:45 152 19.4
2016-May-24 20:30 141 0 gusting 1 19.4
2016-May-24 20:17 141 19.4
2016-May-24 20:01 141 0 gusting 1 19.4
2016-May-24 19:45 141 19.4
2016-May-24 19:30 141 19.4
2016-May-24 19:17 141 19.4
2016-May-24 19:00 137 19.4
2016-May-24 18:45 137 19.4
2016-May-24 18:30 062 19.4
2016-May-24 18:15 062 19.4
2016-May-24 18:00 060 19.4
2016-May-24 17:45 059 19.4
2016-May-24 17:30 060 19.4
2016-May-24 17:15 059 19.4
2016-May-24 17:00 058 19.4
2016-May-24 16:45 058 20.0
2016-May-24 16:30 059 20.0
2016-May-24 16:15 058 20.0
2016-May-24 16:00 058 20.0
2016-May-24 15:47 058 20.6
2016-May-24 15:29 056 20.6
2016-May-24 15:14 056 20.6
2016-May-24 14:59 056 20.6
2016-May-24 14:44 055 20.6
2016-May-24 14:29 055 20.6
2016-May-24 14:14 055 21.1
2016-May-24 13:59 055 21.1
2016-May-24 13:44 055 21.1
2016-May-24 13:29 054 21.7
2016-May-24 13:14 054 21.7
2016-May-24 13:00 054 21.7
2016-May-24 12:44 054 21.7
2016-May-24 12:29 054 21.7
2016-May-24 12:14 053 22.2
2016-May-24 11:59 053 22.8
2016-May-24 11:44 053 0 gusting 1 23.3
2016-May-24 11:29 053 23.3
2016-May-24 11:14 052 0 gusting 4 23.3
2016-May-24 10:59 042 0 gusting 3 23.3
2016-May-24 10:44 043 0 gusting 2 23.3
2016-May-24 10:31 044 23.3
2016-May-24 10:14 046 0 gusting 3 23.3
2016-May-24 09:59 045 0 gusting 2 23.3
2016-May-24 09:44 047 23.3
2016-May-24 09:29 044 23.9
2016-May-24 09:14 044 0 gusting 3 23.9
2016-May-24 08:59 069 0 gusting 3 23.9
2016-May-24 08:46 062 1 gusting 3 23.9
2016-May-24 08:29 075 23.9
2016-May-24 08:14 077 0 gusting 3 23.9
2016-May-24 07:59 077 0 gusting 2 23.9
2016-May-24 07:44 077 0 gusting 3 24.4
2016-May-24 07:29 086 1 gusting 7 24.4
2016-May-24 07:14 084 4 gusting 6 24.4
2016-May-24 06:59 050 3 gusting 6 25.0
2016-May-24 06:44 048 3 gusting 9 25.0
2016-May-24 06:29 069 5 gusting 10 25.6
2016-May-24 06:14 058 6 gusting 11 26.1
2016-May-24 05:59 052 4 gusting 9 26.7
2016-May-24 05:44 001 6 gusting 10 26.7
2016-May-24 05:29 051 4 gusting 12 26.7
2016-May-24 05:14 069 3 gusting 7 26.1
2016-May-24 04:59 048 6 gusting 11 26.1
2016-May-24 04:44 082 4 gusting 13 26.7
2016-May-24 04:29 104 5 gusting 11 26.7
2016-May-24 04:14 044 6 gusting 12 26.7
2016-May-24 03:59 020 6 gusting 12 26.7
2016-May-24 03:44 045 5 gusting 13 27.2
2016-May-24 03:29 028 5 gusting 13 27.2
2016-May-24 03:14 042 5 gusting 12 27.2
2016-May-24 02:59 053 4 gusting 8 27.2
2016-May-24 02:44 065 4 gusting 10 26.7
2016-May-24 02:29 057 3 gusting 8 26.7
2016-May-24 02:14 088 4 gusting 6 26.7
2016-May-24 01:59 050 4 gusting 8 27.2
2016-May-24 01:44 116 3 gusting 7 27.2
2016-May-24 01:29 088 4 gusting 9 26.7
2016-May-24 01:13 114 1 gusting 4 26.7
2016-May-24 00:58 088 1 gusting 4 26.7
2016-May-24 00:43 123 2 gusting 6 26.1
2016-May-24 00:28 133 2 gusting 7 26.1
2016-May-24 00:13 129 1 gusting 5 25.6
2016-May-23 23:58 079 2 gusting 7 25.6
2016-May-23 23:43 121 3 gusting 7 25.0
2016-May-23 23:28 134 1 gusting 4 24.4
2016-May-23 23:13 139 1 gusting 6 23.9
2016-May-23 22:58 153 2 gusting 7 23.9
2016-May-23 22:43 138 2 gusting 5 23.3
2016-May-23 22:28 143 1 gusting 6 22.8
2016-May-23 22:13 165 2 gusting 5 22.2
2016-May-23 21:58 175 1 gusting 4 21.7
2016-May-23 21:43 175 1 gusting 4 21.7
2016-May-23 21:28 175 1 gusting 3 21.1
2016-May-23 21:13 165 0 gusting 2 20.0
2016-May-23 20:58 165 19.4
2016-May-23 20:43 165 20.0
2016-May-23 20:28 165 1 gusting 3 20.0
2016-May-23 20:15 175 20.0
2016-May-23 19:58 175 0 gusting 2 20.0
2016-May-23 19:43 175 20.0
2016-May-23 19:28 175 0 gusting 2 20.0
2016-May-23 19:13 175 1 gusting 2 20.0
2016-May-23 18:58 175 0 gusting 2 20.0
2016-May-23 18:43 175 0 gusting 3 20.6
2016-May-23 18:28 175 0 gusting 3 20.6
2016-May-23 18:13 175 20.6
2016-May-23 17:58 170 0 gusting 3 20.6
2016-May-23 17:43 170 20.6
2016-May-23 17:28 170 20.6
2016-May-23 17:12 170 20.6
2016-May-23 16:57 170 0 gusting 2 21.1
2016-May-23 16:42 170 1 gusting 2 21.1
2016-May-23 16:27 152 1 gusting 3 21.1
2016-May-23 16:12 143 21.1
2016-May-23 15:57 142 21.1
2016-May-23 15:44 142 0 gusting 2 21.1
2016-May-23 15:27 142 0 gusting 2 21.7
2016-May-23 15:12 143 21.7
2016-May-23 14:57 143 21.7
2016-May-23 14:42 143 21.7
2016-May-23 14:27 143 21.7
2016-May-23 14:12 143 0 gusting 2 22.2
2016-May-23 13:57 143 0 gusting 3 22.2
2016-May-23 13:42 147 1 gusting 3 22.2
2016-May-23 13:29 143 1 gusting 3 22.2
2016-May-23 13:12 123 1 gusting 3 22.2
2016-May-23 12:57 087 0 gusting 2 22.8
2016-May-23 12:42 097 22.8
2016-May-23 12:27 147 2 gusting 7 23.3
2016-May-23 12:12 121 2 gusting 8 22.8
2016-May-23 11:58 104 1 gusting 5 22.8
2016-May-23 11:42 118 1 gusting 5 22.8
2016-May-23 11:27 125 2 gusting 4 22.8
2016-May-23 11:12 104 22.8
2016-May-23 10:57 104 0 gusting 2 22.8
2016-May-23 10:42 091 1 gusting 4 22.8
2016-May-23 10:27 087 1 gusting 3 22.8
2016-May-23 10:12 077 1 gusting 5 22.8
2016-May-23 09:57 082 1 gusting 5 22.8
2016-May-23 09:42 127 2 gusting 7 22.8
2016-May-23 09:27 091 1 gusting 3 22.8
2016-May-23 09:12 094 0 gusting 2 22.8
2016-May-23 08:57 096 22.8
2016-May-23 08:42 096 23.3
2016-May-23 08:27 087 0 gusting 3 23.3
2016-May-23 08:12 077 0 gusting 4 23.9
2016-May-23 07:57 088 1 gusting 3 23.9
2016-May-23 07:42 084 0 gusting 2 23.9
2016-May-23 07:27 086 24.4
2016-May-23 07:12 086 24.4
2016-May-23 06:57 087 0 gusting 3 25.0
2016-May-23 06:42 062 0 gusting 6 25.0
2016-May-23 06:27 058 0 gusting 6 25.0
2016-May-23 06:12 069 2 gusting 7 25.0
2016-May-23 05:57 044 2 gusting 7 25.6
2016-May-23 05:42 045 4 gusting 10 25.6
2016-May-23 05:27 075 2 gusting 6 25.6
2016-May-23 05:12 120 3 gusting 9 25.6